AVA944 SKCL-SECU

Flight info

Callsign AVA944
Flight time 1h 15m
Altitude 37000
Route CLO1D CLO UP778 BOKAN UP533 QIT UT5 VUTNI
Aircraft A320/M-SDE3FGHIRWY/LB1

Departure

Time 2026-05-04 19:30
Airport Alfonso Bonilla Aragon International Airport (SKCL)

Arrival

Time 2026-05-04 20:46
Airport Mariscal Lamar Airport (SECU)
Time Latitude Longitude Altitude Speed Heading
2026-05-04 19:21 3.54155 -76.38678 3164 ft 0 kts 280°
2026-05-04 19:26 3.54155 -76.38676 3164 ft 2 kts 281°
2026-05-04 19:26 3.54151 -76.38659 3165 ft 3 kts 284°
2026-05-04 19:26 3.54148 -76.38645 3164 ft 0 kts 284°
2026-05-04 19:27 3.54147 -76.38647 3164 ft 1 kts 274°
2026-05-04 19:27 3.54129 -76.38634 3165 ft 6 kts 128°
2026-05-04 19:28 3.54106 -76.38605 3164 ft 6 kts 129°
2026-05-04 19:28 3.54051 -76.38592 3163 ft 12 kts 187°
2026-05-04 19:28 3.53950 -76.38608 3163 ft 16 kts 190°
2026-05-04 19:28 3.53840 -76.38611 3162 ft 16 kts 148°
2026-05-04 19:29 3.53746 -76.38545 3162 ft 17 kts 146°
2026-05-04 19:29 3.53647 -76.38475 3162 ft 18 kts 143°
2026-05-04 19:29 3.53545 -76.38425 3162 ft 17 kts 118°
2026-05-04 19:29 3.53534 -76.38310 3162 ft 16 kts 50°
2026-05-04 19:30 3.53673 -76.38280 3163 ft 38 kts
2026-05-04 19:30 3.54204 -76.38187 3166 ft 114 kts
2026-05-04 19:30 3.55193 -76.38020 3175 ft 171 kts
2026-05-04 19:30 3.56399 -76.37832 3871 ft 177 kts 10°
2026-05-04 19:31 3.57612 -76.37619 4722 ft 179 kts
2026-05-04 19:31 3.58886 -76.37389 5097 ft 197 kts
2026-05-04 19:31 3.60310 -76.37133 5424 ft 216 kts
2026-05-04 19:31 3.61813 -76.36862 5940 ft 222 kts
2026-05-04 19:32 3.63342 -76.36589 6542 ft 224 kts
2026-05-04 19:32 3.64886 -76.36313 7159 ft 226 kts
2026-05-04 19:32 3.66442 -76.36001 7666 ft 235 kts 18°
2026-05-04 19:32 3.67876 -76.35077 7875 ft 260 kts 50°
2026-05-04 19:33 3.68647 -76.33376 8194 ft 282 kts 84°
2026-05-04 19:33 3.68308 -76.31433 8795 ft 291 kts 118°
2026-05-04 19:33 3.66946 -76.29946 9517 ft 295 kts 150°
2026-05-04 19:33 3.64984 -76.29389 10214 ft 299 kts 181°
2026-05-04 19:34 3.62879 -76.29777 10484 ft 321 kts 199°
2026-05-04 19:34 3.60767 -76.30731 10628 ft 345 kts 207°
2026-05-04 19:34 3.58607 -76.31947 10746 ft 367 kts 209°
2026-05-04 19:34 3.56333 -76.33247 10888 ft 385 kts 208°
2026-05-04 19:35 3.53900 -76.34539 11318 ft 393 kts 206°
2026-05-04 19:35 3.51430 -76.35739 11847 ft 397 kts 204°
2026-05-04 19:35 3.48906 -76.36881 12384 ft 400 kts 202°
2026-05-04 19:35 3.46349 -76.37987 12922 ft 404 kts 201°
2026-05-04 19:36 3.43745 -76.39094 13470 ft 407 kts 201°
2026-05-04 19:36 3.41129 -76.40207 13977 ft 410 kts 201°
2026-05-04 19:36 3.38567 -76.41497 14403 ft 415 kts 207°
2026-05-04 19:36 3.36049 -76.42919 14833 ft 418 kts 208°
2026-05-04 19:37 3.33516 -76.44362 15250 ft 421 kts 208°
2026-05-04 19:37 3.30966 -76.45825 15667 ft 424 kts 208°
2026-05-04 19:37 3.28401 -76.47297 16102 ft 427 kts 208°
2026-05-04 19:37 3.25812 -76.48780 16653 ft 432 kts 208°
2026-05-04 19:38 3.23178 -76.50281 17274 ft 439 kts 208°
2026-05-04 19:38 3.20515 -76.51796 18019 ft 442 kts 209°
2026-05-04 19:38 3.17838 -76.53322 18508 ft 444 kts 208°
2026-05-04 19:38 3.15147 -76.54857 18856 ft 446 kts 208°
2026-05-04 19:39 3.12456 -76.56394 19191 ft 448 kts 208°
2026-05-04 19:39 3.09731 -76.57948 19529 ft 451 kts 208°
2026-05-04 19:39 3.06995 -76.59505 19880 ft 453 kts 208°
2026-05-04 19:39 3.04253 -76.61066 20211 ft 455 kts 208°
2026-05-04 19:40 3.01497 -76.62635 20534 ft 457 kts 208°
2026-05-04 19:40 2.98722 -76.64212 20868 ft 459 kts 208°
2026-05-04 19:40 2.95941 -76.65790 21192 ft 461 kts 208°
2026-05-04 19:40 2.93145 -76.67380 21485 ft 463 kts 208°
2026-05-04 19:41 2.90337 -76.68979 21805 ft 465 kts 208°
2026-05-04 19:41 2.87529 -76.70578 22103 ft 467 kts 208°
2026-05-04 19:41 2.84688 -76.72197 22399 ft 469 kts 208°
2026-05-04 19:41 2.81841 -76.73817 22666 ft 471 kts 208°
2026-05-04 19:42 2.78988 -76.75442 22944 ft 473 kts 208°
2026-05-04 19:42 2.76116 -76.77079 23210 ft 476 kts 208°
2026-05-04 19:42 2.73237 -76.78718 23512 ft 478 kts 208°
2026-05-04 19:42 2.70337 -76.80366 23773 ft 480 kts 208°
2026-05-04 19:43 2.67425 -76.82023 24102 ft 482 kts 208°
2026-05-04 19:43 2.64508 -76.83685 24332 ft 484 kts 208°
2026-05-04 19:43 2.61579 -76.85352 24546 ft 485 kts 208°
2026-05-04 19:43 2.58639 -76.87024 24761 ft 486 kts 208°
2026-05-04 19:44 2.55696 -76.88698 24965 ft 488 kts 208°
2026-05-04 19:44 2.52745 -76.90378 25169 ft 489 kts 208°
2026-05-04 19:44 2.49791 -76.92061 25374 ft 490 kts 208°
2026-05-04 19:44 2.46828 -76.93747 25588 ft 491 kts 208°
2026-05-04 19:45 2.43854 -76.95437 25890 ft 490 kts 208°
2026-05-04 19:45 2.41899 -76.96548 26077 ft 489 kts 208°
2026-05-04 19:45 2.38938 -76.98232 26361 ft 489 kts 208°
2026-05-04 19:45 2.35978 -76.99918 26659 ft 489 kts 208°
2026-05-04 19:46 2.33029 -77.01598 26972 ft 488 kts 208°
2026-05-04 19:46 2.30074 -77.03277 27294 ft 487 kts 207°
2026-05-04 19:46 2.27131 -77.04949 27603 ft 487 kts 207°
2026-05-04 19:46 2.24188 -77.06622 27926 ft 486 kts 207°
2026-05-04 19:47 2.21248 -77.08297 28232 ft 486 kts 207°
2026-05-04 19:47 2.18314 -77.09969 28562 ft 485 kts 207°
2026-05-04 19:47 2.15380 -77.11636 28883 ft 485 kts 207°
2026-05-04 19:47 2.12447 -77.13301 29206 ft 484 kts 207°
2026-05-04 19:48 2.09522 -77.14963 29541 ft 484 kts 207°
2026-05-04 19:48 2.06595 -77.16625 29869 ft 483 kts 207°
2026-05-04 19:48 2.03664 -77.18290 30182 ft 483 kts 207°
2026-05-04 19:48 2.00746 -77.19948 30464 ft 482 kts 207°
2026-05-04 19:49 1.97832 -77.21604 30748 ft 482 kts 207°
2026-05-04 19:49 1.94920 -77.23262 31077 ft 481 kts 207°
2026-05-04 19:49 1.92020 -77.24916 31469 ft 480 kts 207°
2026-05-04 19:49 1.89119 -77.26569 31807 ft 479 kts 207°
2026-05-04 19:50 1.86227 -77.28212 32118 ft 478 kts 207°
2026-05-04 19:50 1.83337 -77.29851 32435 ft 477 kts 207°
2026-05-04 19:50 1.80451 -77.31485 32742 ft 476 kts 207°
2026-05-04 19:50 1.77568 -77.33118 33061 ft 476 kts 207°
2026-05-04 19:51 1.74694 -77.34754 33374 ft 475 kts 207°
2026-05-04 19:51 1.71828 -77.36389 33737 ft 474 kts 207°
2026-05-04 19:51 1.68966 -77.38019 34080 ft 473 kts 207°
2026-05-04 19:51 1.66110 -77.39641 34379 ft 472 kts 207°
2026-05-04 19:52 1.63261 -77.41260 34733 ft 472 kts 207°
2026-05-04 19:52 1.60409 -77.42878 35108 ft 471 kts 207°
2026-05-04 19:52 1.57567 -77.44489 35378 ft 470 kts 207°
2026-05-04 19:52 1.54719 -77.46104 35636 ft 470 kts 207°
2026-05-04 19:53 1.51877 -77.47715 35905 ft 469 kts 207°
2026-05-04 19:53 1.49040 -77.49326 36058 ft 470 kts 208°
2026-05-04 19:53 1.46188 -77.50949 36088 ft 473 kts 208°
2026-05-04 19:54 1.40435 -77.54224 36081 ft 480 kts 208°
2026-05-04 19:54 1.34599 -77.57546 36069 ft 485 kts 208°
2026-05-04 19:55 1.28723 -77.60880 36063 ft 486 kts 208°
2026-05-04 19:55 1.22836 -77.64217 36064 ft 486 kts 208°
2026-05-04 19:56 1.16948 -77.67556 36146 ft 486 kts 208°
2026-05-04 19:56 1.11058 -77.70892 36233 ft 487 kts 208°
2026-05-04 19:57 1.05167 -77.74238 36303 ft 487 kts 208°
2026-05-04 19:57 0.99281 -77.77591 36348 ft 487 kts 208°
2026-05-04 19:58 0.93397 -77.80943 36356 ft 487 kts 208°
2026-05-04 19:58 0.87512 -77.84273 36407 ft 487 kts 207°
2026-05-04 19:59 0.81604 -77.87628 36375 ft 488 kts 210°
2026-05-04 19:59 0.76080 -77.91605 36325 ft 490 kts 215°
2026-05-04 20:00 0.70626 -77.95680 36258 ft 490 kts 215°
2026-05-04 20:00 0.65152 -77.99759 36194 ft 491 kts 215°
2026-05-04 20:01 0.59678 -78.03829 36171 ft 491 kts 215°
2026-05-04 20:01 0.54198 -78.07903 36183 ft 491 kts 215°
2026-05-04 20:02 0.48713 -78.11985 36201 ft 491 kts 215°
2026-05-04 20:02 0.43235 -78.16063 36205 ft 491 kts 215°
2026-05-04 20:03 0.37755 -78.20143 36214 ft 491 kts 215°
2026-05-04 20:03 0.32275 -78.24228 36219 ft 491 kts 215°
2026-05-04 20:04 0.26792 -78.28309 36234 ft 492 kts 215°
2026-05-04 20:04 0.21507 -78.32237 36246 ft 492 kts 215°
2026-05-04 20:05 0.16026 -78.36320 36278 ft 492 kts 215°
2026-05-04 20:05 0.10542 -78.40419 36298 ft 492 kts 215°
2026-05-04 20:06 0.05044 -78.44509 36318 ft 493 kts 215°
2026-05-04 20:06 -0.00468 -78.48563 36308 ft 491 kts 211°
2026-05-04 20:07 -0.06631 -78.51365 36306 ft 486 kts 192°
2026-05-04 20:07 -0.13271 -78.52485 36311 ft 484 kts 186°
2026-05-04 20:08 -0.19936 -78.53452 36310 ft 485 kts 186°
2026-05-04 20:08 -0.26614 -78.54431 36298 ft 485 kts 186°
2026-05-04 20:09 -0.33292 -78.55406 36302 ft 486 kts 186°
2026-05-04 20:09 -0.39980 -78.56380 36283 ft 485 kts 186°
2026-05-04 20:10 -0.46661 -78.57344 36286 ft 486 kts 186°
2026-05-04 20:10 -0.53348 -78.58312 36286 ft 486 kts 186°
2026-05-04 20:11 -0.60035 -78.59288 36338 ft 485 kts 186°
2026-05-04 20:11 -0.66721 -78.60260 36387 ft 485 kts 186°
2026-05-04 20:12 -0.73405 -78.61228 36417 ft 486 kts 186°
2026-05-04 20:12 -0.80095 -78.62201 36433 ft 486 kts 186°
2026-05-04 20:13 -0.86792 -78.63173 36433 ft 486 kts 186°
2026-05-04 20:13 -0.93496 -78.64143 36438 ft 487 kts 186°
2026-05-04 20:14 -1.00199 -78.65119 36437 ft 487 kts 186°
2026-05-04 20:14 -1.06900 -78.66097 36420 ft 487 kts 186°
2026-05-04 20:15 -1.13611 -78.67069 36385 ft 487 kts 186°
2026-05-04 20:15 -1.20322 -78.68034 36325 ft 487 kts 186°
2026-05-04 20:16 -1.27025 -78.69003 36243 ft 487 kts 186°
2026-05-04 20:16 -1.33738 -78.69981 36298 ft 487 kts 186°
2026-05-04 20:17 -1.40444 -78.70954 36365 ft 487 kts 186°
2026-05-04 20:17 -1.47148 -78.71921 36408 ft 487 kts 186°
2026-05-04 20:18 -1.53847 -78.72895 36440 ft 486 kts 186°
2026-05-04 20:18 -1.60550 -78.73871 36448 ft 486 kts 186°
2026-05-04 20:19 -1.67255 -78.74842 36056 ft 488 kts 186°
2026-05-04 20:19 -1.70589 -78.75326 35806 ft 481 kts 186°
2026-05-04 20:19 -1.73887 -78.75805 35506 ft 479 kts 186°
2026-05-04 20:19 -1.77182 -78.76286 35104 ft 478 kts 186°
2026-05-04 20:20 -1.80467 -78.76766 34700 ft 477 kts 186°
2026-05-04 20:20 -1.83756 -78.77246 34286 ft 477 kts 186°
2026-05-04 20:20 -1.87032 -78.77721 33777 ft 474 kts 185°
2026-05-04 20:20 -1.90283 -78.78191 33228 ft 468 kts 186°
2026-05-04 20:21 -1.93484 -78.78654 32690 ft 462 kts 185°
2026-05-04 20:21 -1.96639 -78.79109 32151 ft 457 kts 186°
2026-05-04 20:21 -2.02874 -78.80012 31064 ft 450 kts 186°
2026-05-04 20:22 -2.05964 -78.80462 30537 ft 447 kts 186°
2026-05-04 20:22 -2.09034 -78.80909 29993 ft 445 kts 186°
2026-05-04 20:22 -2.12080 -78.81350 29380 ft 442 kts 186°
2026-05-04 20:22 -2.15114 -78.81790 28790 ft 439 kts 186°
2026-05-04 20:23 -2.18133 -78.82228 28209 ft 436 kts 186°
2026-05-04 20:23 -2.21127 -78.82664 27642 ft 433 kts 186°
2026-05-04 20:23 -2.24096 -78.83096 27088 ft 430 kts 186°
2026-05-04 20:23 -2.27022 -78.83519 26544 ft 418 kts 186°
2026-05-04 20:24 -2.29853 -78.83930 26006 ft 405 kts 186°
2026-05-04 20:24 -2.32605 -78.84329 25486 ft 394 kts 186°
2026-05-04 20:24 -2.35277 -78.84718 24974 ft 383 kts 186°
2026-05-04 20:24 -2.37892 -78.85100 24472 ft 374 kts 186°
2026-05-04 20:25 -2.40439 -78.85472 23981 ft 367 kts 186°
2026-05-04 20:25 -2.42935 -78.85833 23427 ft 360 kts 186°
2026-05-04 20:25 -2.44601 -78.86073 22997 ft 356 kts 186°
2026-05-04 20:25 -2.47003 -78.86418 22382 ft 351 kts 186°
2026-05-04 20:26 -2.49414 -78.86766 21690 ft 350 kts 186°
2026-05-04 20:26 -2.51840 -78.87114 20917 ft 354 kts 186°
2026-05-04 20:26 -2.54281 -78.87446 20128 ft 355 kts 185°
2026-05-04 20:26 -2.56729 -78.87766 19373 ft 355 kts 185°
2026-05-04 20:27 -2.59180 -78.88083 18645 ft 356 kts 185°
2026-05-04 20:27 -2.61637 -78.88401 17813 ft 356 kts 185°
2026-05-04 20:27 -2.64087 -78.88739 16984 ft 355 kts 186°
2026-05-04 20:27 -2.66526 -78.89100 16171 ft 353 kts 186°
2026-05-04 20:28 -2.68946 -78.89471 15379 ft 352 kts 186°
2026-05-04 20:28 -2.71362 -78.89846 14609 ft 350 kts 187°
2026-05-04 20:28 -2.73746 -78.90334 13813 ft 351 kts 194°
2026-05-04 20:28 -2.76012 -78.91249 12955 ft 352 kts 206°
2026-05-04 20:29 -2.78048 -78.92588 12137 ft 350 kts 218°
2026-05-04 20:29 -2.79749 -78.94281 11628 ft 340 kts 230°
2026-05-04 20:29 -2.81118 -78.96130 11385 ft 317 kts 233°
2026-05-04 20:29 -2.82339 -78.97800 11158 ft 279 kts 233°
2026-05-04 20:30 -2.83444 -78.99294 10826 ft 258 kts 232°
2026-05-04 20:30 -2.84466 -79.00668 10666 ft 231 kts 233°
2026-05-04 20:30 -2.85364 -79.01879 10629 ft 203 kts 233°
2026-05-04 20:30 -2.86161 -79.02950 10621 ft 184 kts 232°
2026-05-04 20:31 -2.86909 -79.03954 10616 ft 177 kts 232°
2026-05-04 20:31 -2.87785 -79.04787 10613 ft 173 kts 206°
2026-05-04 20:31 -2.88924 -79.05070 10428 ft 167 kts 175°
2026-05-04 20:31 -2.89982 -79.04669 10185 ft 163 kts 136°
2026-05-04 20:32 -2.90705 -79.03819 9965 ft 160 kts 117°
2026-05-04 20:32 -2.91063 -79.02777 9744 ft 159 kts 96°
2026-05-04 20:32 -2.90996 -79.01689 9318 ft 158 kts 77°
2026-05-04 20:32 -2.90625 -79.00662 8909 ft 157 kts 62°
2026-05-04 20:33 -2.90001 -78.99771 8553 ft 156 kts 50°
2026-05-04 20:33 -2.89325 -78.98920 8311 ft 152 kts 52°
2026-05-04 20:33 -2.88681 -78.98091 8598 ft 161 kts 51°
2026-05-04 20:33 -2.87947 -78.97122 9253 ft 186 kts 54°
2026-05-04 20:34 -2.87151 -78.96070 9847 ft 190 kts 52°
2026-05-04 20:34 -2.86364 -78.94931 9967 ft 208 kts 70°
2026-05-04 20:34 -2.86045 -78.93458 10108 ft 228 kts 85°
2026-05-04 20:34 -2.86040 -78.91854 10516 ft 232 kts 90°
2026-05-04 20:35 -2.86038 -78.90238 11014 ft 233 kts 89°
2026-05-04 20:35 -2.85991 -78.88621 11505 ft 233 kts 88°
2026-05-04 20:35 -2.85927 -78.86993 11929 ft 236 kts 88°
2026-05-04 20:35 -2.85858 -78.85350 12008 ft 238 kts 88°
2026-05-04 20:36 -2.85788 -78.83668 12020 ft 245 kts 88°
2026-05-04 20:36 -2.85690 -78.81958 11992 ft 246 kts 81°
2026-05-04 20:36 -2.85208 -78.80295 12007 ft 247 kts 66°
2026-05-04 20:36 -2.84308 -78.78836 12005 ft 248 kts 52°
2026-05-04 20:37 -2.83047 -78.77656 11998 ft 252 kts 36°
2026-05-04 20:37 -2.81463 -78.76833 11991 ft 262 kts 22°
2026-05-04 20:37 -2.79663 -78.76488 11988 ft 267 kts
2026-05-04 20:37 -2.77809 -78.76679 11988 ft 270 kts 347°
2026-05-04 20:38 -2.76070 -78.77406 11986 ft 274 kts 330°
2026-05-04 20:38 -2.74603 -78.78624 11985 ft 276 kts 311°
2026-05-04 20:38 -2.73567 -78.80242 11983 ft 278 kts 294°
2026-05-04 20:38 -2.73068 -78.82103 11990 ft 279 kts 275°
2026-05-04 20:39 -2.73150 -78.84038 11988 ft 280 kts 257°
2026-05-04 20:39 -2.73804 -78.85855 12005 ft 279 kts 239°
2026-05-04 20:39 -2.74890 -78.87451 12007 ft 278 kts 232°
2026-05-04 20:39 -2.76012 -78.89003 12019 ft 266 kts 232°
2026-05-04 20:40 -2.77026 -78.90417 12012 ft 235 kts 232°
2026-05-04 20:40 -2.77938 -78.91690 11809 ft 215 kts 232°
2026-05-04 20:40 -2.78765 -78.92842 11735 ft 194 kts 232°
2026-05-04 20:40 -2.79539 -78.93922 11689 ft 189 kts 232°
2026-05-04 20:41 -2.80295 -78.94975 11648 ft 185 kts 232°
2026-05-04 20:41 -2.81052 -78.96014 11633 ft 180 kts 231°
2026-05-04 20:41 -2.81792 -78.97017 11593 ft 177 kts 231°
2026-05-04 20:41 -2.82528 -78.98011 11381 ft 176 kts 232°
2026-05-04 20:42 -2.83253 -78.98988 11049 ft 174 kts 232°
2026-05-04 20:42 -2.83969 -78.99955 10747 ft 172 kts 231°
2026-05-04 20:42 -2.84673 -79.00907 10446 ft 169 kts 233°
2026-05-04 20:42 -2.85375 -79.01857 10163 ft 171 kts 232°
2026-05-04 20:43 -2.86076 -79.02809 10034 ft 171 kts 232°
2026-05-04 20:43 -2.86783 -79.03766 9907 ft 172 kts 232°
2026-05-04 20:43 -2.87576 -79.04649 9797 ft 170 kts 213°
2026-05-04 20:43 -2.88642 -79.05104 9671 ft 166 kts 186°
2026-05-04 20:44 -2.89775 -79.05035 9545 ft 163 kts 159°
2026-05-04 20:44 -2.90746 -79.04483 9420 ft 160 kts 134°
2026-05-04 20:44 -2.91376 -79.03580 9262 ft 159 kts 110°
2026-05-04 20:44 -2.91563 -79.02503 9074 ft 157 kts 85°
2026-05-04 20:45 -2.91284 -79.01475 8887 ft 156 kts 62°
2026-05-04 20:45 -2.90646 -79.00598 8681 ft 156 kts 50°
2026-05-04 20:45 -2.89971 -78.99744 8491 ft 157 kts 50°
2026-05-04 20:45 -2.89302 -78.98893 8310 ft 151 kts 50°
2026-05-04 20:46 -2.88857 -78.98346 8278 ft 31 kts 51°
2026-05-04 20:46 -2.88863 -78.98324 8280 ft 9 kts 233°
2026-05-04 20:46 -2.88929 -78.98412 8283 ft 21 kts 233°
2026-05-04 20:46 -2.88991 -78.98530 8282 ft 18 kts 283°
2026-05-04 20:47 -2.88985 -78.98603 8286 ft 6 kts 232°
2026-05-04 20:47 -2.88985 -78.98604 8286 ft 0 kts 232°
2026-05-04 20:48 -2.88988 -78.98607 8286 ft 4 kts 232°
2026-05-04 20:48 -2.89012 -78.98649 8289 ft 2 kts 289°
2026-05-04 20:48 -2.89004 -78.98655 8289 ft 2 kts 320°
2026-05-04 20:49 -2.88994 -78.98664 8288 ft 1 kts 321°
2026-05-04 20:49 -2.88992 -78.98665 8288 ft 0 kts 321°
2026-05-04 20:49 -2.88989 -78.98667 8288 ft 1 kts 320°
2026-05-04 20:49 -2.88983 -78.98672 8290 ft 0 kts 322°